Ft Riley, KS

12:19 PM CDT on March 25, 2017 (GMT -0500)
Marshall Army Air Field

Weather History for KFRI - February, 2014

Change the Weather History Date:

Sunday, February 23, 2014

  Actual Average (KMHK) Record (KMHK)
Temperature  
Mean Temperature 28 °F -  
Max Temperature 34 °F 44 °F 70 °F (2007)
Min Temperature 22 °F 23 °F 4 °F (2013)
Degree Days  
Heating Degree Days 37    
Moisture  
Dew Point 15 °F    
Average Humidity 59    
Maximum Humidity 79    
Minimum Humidity 40    
Precipitation  
Precipitation 0.00 in - - ()
Sea Level Pressure  
Sea Level Pressure 30.31 in    
Wind  
Wind Speed 12 mph (NE)    
Max Wind Speed 18 mph    
Max Gust Speed 25 mph    
Visibility 10 miles    
Events      
Averages and records for this station are not official NWS values.
T = Trace of Precipitation, MM = Missing Value Source: NWS Daily Summary

Daily Weather History Graph

Daily Weather History Graph

Search for Another Location

Airport or City:

Trip Planner

Search our weather history database for the weather conditions in past years. The results will help you decide how hot, cold, wet, or windy it might be!

Date:

Astronomy

Feb. 23, 2014 Rise Set
Actual Time 7:08 AM CST 6:13 PM CST
Civil Twilight 6:41 AM CST 6:40 PM CST
Nautical Twilight 6:10 AM CST 7:11 PM CST
Astronomical Twilight 5:39 AM CST 7:42 PM CST
Moon 2:06 AM CST (2/23) 12:18 PM CST (2/23)
Length of Visible Light 11h 59m
Length of Day
11h 05m
Last Quarter, 38% of the Moon is Illuminated
Feb 23
Last Quarter
Mar 1
New
Mar 8
First Quarter
Mar 16
Full
Mar 23
Last Quarter

Hourly Weather History & Observations

Time (CST) Temp. Windchill Dew Point Humidity Pressure Visibility Wind Dir Wind Speed Gust Speed Precip Events Conditions
12:58 AM 30.7 °F 20.0 °F 17.6 °F 58% 30.13 in 10.0 mi NE 15.0 mph 24.2 mph N/A   Overcast
1:58 AM 30.4 °F 20.0 °F 15.6 °F 54% 30.18 in 10.0 mi NE 13.8 mph - N/A   Overcast
2:58 AM 28.9 °F 17.7 °F 16.3 °F 59% 30.19 in 10.0 mi NE 15.0 mph - N/A   Mostly Cloudy
3:58 AM 28.4 °F 19.1 °F 17.8 °F 64% 30.19 in 10.0 mi NE 10.4 mph - N/A   Overcast
4:58 AM 28.4 °F 15.8 °F 21.2 °F 74% 30.19 in 10.0 mi NE 18.4 mph 25.3 mph N/A   Overcast
5:58 AM 27.1 °F 16.9 °F 21.4 °F 79% 30.22 in 10.0 mi NE 11.5 mph - N/A   Mostly Cloudy
6:58 AM 26.6 °F 15.2 °F 19.6 °F 75% 30.26 in 10.0 mi NE 13.8 mph - N/A   Overcast
7:58 AM 27.1 °F 16.4 °F 20.1 °F 75% 30.28 in 10.0 mi NNE 12.7 mph - N/A   Scattered Clouds
8:58 AM 29.5 °F 18.8 °F 19.0 °F 65% 30.32 in 10.0 mi NNE 13.8 mph - N/A   Scattered Clouds
9:58 AM 30.2 °F 20.2 °F 15.8 °F 55% 30.33 in 10.0 mi North 12.7 mph 19.6 mph N/A   Overcast
10:58 AM 30.2 °F 19.8 °F 11.3 °F 45% 30.36 in 10.0 mi NNE 13.8 mph - N/A   Overcast
11:58 AM 30.9 °F 20.7 °F 14.9 °F 52% 30.36 in 10.0 mi NNE 13.8 mph - N/A   Overcast
12:58 PM 32.2 °F 23.8 °F 12.7 °F 45% 30.35 in 10.0 mi North 10.4 mph - N/A   Overcast
1:58 PM 33.1 °F 23.4 °F 10.9 °F 40% 30.34 in 10.0 mi NNE 13.8 mph - N/A   Overcast
2:58 PM 34.2 °F 26.2 °F 13.1 °F 42% 30.34 in 10.0 mi NE 10.4 mph - N/A   Overcast
3:58 PM 33.1 °F 23.9 °F 12.0 °F 42% 30.34 in 10.0 mi NNE 12.7 mph - N/A   Overcast
4:58 PM 32.0 °F 23.0 °F 10.9 °F 42% 30.34 in 10.0 mi NE 11.5 mph - N/A   Overcast
5:58 PM 29.8 °F 20.9 °F 10.4 °F 44% 30.35 in 10.0 mi NNE 10.4 mph - N/A   Overcast
6:58 PM 28.0 °F 20.0 °F 13.5 °F 54% 30.37 in 10.0 mi NNE 8.1 mph - N/A   Overcast
7:58 PM 24.3 °F 18.4 °F 13.6 °F 64% 30.38 in 10.0 mi NE 4.6 mph - N/A   Clear
8:58 PM 24.8 °F - 14.4 °F 65% 30.38 in 10.0 mi East 2.3 mph - N/A   Clear
9:58 PM 22.8 °F 18.2 °F 15.4 °F 73% 30.38 in 10.0 mi NE 3.5 mph - N/A   Clear
10:58 PM 22.5 °F - 15.4 °F 74% 30.40 in 10.0 mi Calm Calm - N/A   Partly Cloudy
11:58 PM 22.8 °F - 16.9 °F 78% 30.39 in 10.0 mi East 1.2 mph - N/A   Overcast